Regional Weather Roundup
Issued by NWS Nashville, TN

Home | Current Version | Previous Version | Text Only | Print | Product List | Glossary On
Versions: 1 2 3 4 5 6 7 8 9 10 11 12 13 14 15 16 17 18 19 20 21 22 23 24 25 26 27
000
ASUS44 KOHX 081710
RWROHX
MIDDLE TENNESSEE HOURLY WEATHER ROUNDUP
NATIONAL WEATHER SERVICE NASHVILLE TN
1100 AM CST THU DEC 08 2016

NOTE: "FAIR" INDICATES FEW OR NO CLOUDS BELOW 12,000 FEET WITH
NO SIGNIFICANT WEATHER AND/OR OBSTRUCTIONS TO VISIBILITY.

* THESE REPORTS ARE NOT UNDER NWS QUALITY CONTROL AND MAY NOT
  REPORT WEATHER SUCH AS PRECIPITATION AND FOG.


TNZ005>011-023>034-057-059-062>066-078-080-081800
...NORTHERN MIDDLE TENNESSEE...

CITY           SKY/WX    TMP DP  RH WIND       PRES   REMARKS
CLARKSVILLE    MOSUNNY   34  12  40 NW13      30.46S WCI  25
CROSSVILLE     SUNNY     35  19  52 NW12      30.30F WCI  27
GALLATIN       SUNNY     36  19  51 NW12G17   30.44F WCI  27
LEBANON        MOSUNNY   36  20  52 NW10      30.39F WCI  28
NASHVILLE      CLOUDY    38  16  40 NW14      30.43F WCI  30
PORTLAND       SUNNY     34  18  51 NW12G18   30.41F WCI  25
SMYRNA         CLOUDY    39  19  44 N13       30.42F WCI  31
SPRINGFIELD    SUNNY     32  19  59 NW9       30.43F WCI  24
WEST NASHVILLE SUNNY     36  16  44 W13       30.43F WCI  27
$$
TNZ056-058-060-061-075>077-079-093>097-081800
...SOUTHERN MIDDLE TENNESSEE...

CITY           SKY/WX    TMP DP  RH WIND       PRES   REMARKS
COLUMBIA       SUNNY     37  21  52 N12       30.41S WCI  30
FAYETTEVILLE   SUNNY     36  23  60 N10       30.40S WCI  28
MCMINNVILLE    SUNNY     37  21  52 NW8         N/A  WCI  31
MURFREESBORO   CLOUDY    37  19  48 NW12      30.41F WCI  29
SHELBYVILLE    SUNNY     39  25  56 NW10      30.40F WCI  32
TULLAHOMA      SUNNY     36  19  51 N12       30.37F WCI  27
WINCHESTER     SUNNY     36  21  55 N9        30.38S WCI  29
$$


...KEY TO REMARKS...
VSB - VISIBILITY IN MILES
WCI - WIND CHILL INDEX
HX  - HEAT INDEX





USA.gov is the U.S. government's official web portal to all federal, state and local government web resources and services.